Wind_Speed
22 22 21 21 20 19 19 18 17 16 15 14 13 13 12 11 11 10 9 9 8 7 6 6 6 6 5 5 5 4 4 4 4 4 4 5 5 5 6 6 7 8 9
23 23 23 22 22 21 20 19 19 18 17 16 15 14 13 13 12 12 11 10 10 9 8 8 7 7 7 7 7 7 6 6 6 6 6 6 7 7 7 8 8 9 10
25 25 24 24 24 23 22 21 20 19 18 18 17 16 15 15 14 14 13 12 12 11 11 10 9 9 9 9 8 8 8 8 8 8 8 8 8 8 9 9 10 10 11
27 27 26 26 25 25 24 23 22 21 21 20 19 18 17 16 16 15 15 14 14 13 13 12 11 11 11 10 10 10 10 10 9 10 10 10 10 10 11 11 12 12 13
29 29 28 28 27 26 26 25 24 23 23 22 21 21 20 19 18 17 17 16 16 15 15 14 13 13 13 12 12 12 12 12 12 12 12 12 12 13 13 13 14 14 15
32 31 30 30 29 28 27 27 26 25 24 23 23 23 22 22 21 20 19 18 18 17 17 17 16 16 15 15 14 14 14 14 14 14 14 15 15 15 15 15 16 16 17
35 34 33 32 32 31 30 29 27 27 26 25 25 25 24 24 24 23 22 21 20 19 19 19 18 18 18 18 17 17 17 16 17 17 17 17 17 17 17 18 18 18 18
38 37 36 35 34 34 33 32 30 29 28 28 27 27 26 26 25 25 24 23 22 21 21 20 20 20 20 20 20 19 19 19 19 18 18 19 19 19 19 19 19 20 20
40 39 38 37 36 36 35 34 33 31 30 30 29 29 28 27 27 26 26 25 25 24 23 23 22 22 22 22 22 22 21 21 21 21 21 21 21 21 21 21 21 22 22
42 42 41 40 38 37 37 36 35 33 32 31 31 30 29 29 28 28 27 27 26 27 26 25 25 24 24 24 23 23 23 23 23 22 22 22 22 22 23 23 23 23 24
44 44 43 42 41 40 39 38 37 35 34 33 33 32 31 30 30 29 29 29 29 28 28 28 27 26 25 25 25 25 24 24 24 24 24 24 24 24 24 24 25 25 26
46 45 45 44 43 42 41 40 39 38 37 35 34 33 33 31 31 30 30 30 30 30 29 29 29 28 27 27 27 27 26 26 26 25 26 26 26 26 26 27 27 27 28
46 47 46 46 45 44 43 41 40 39 39 38 36 35 34 33 32 32 32 32 32 32 31 30 30 30 30 29 29 28 28 28 28 27 27 27 27 28 28 29 29 29 29
46 46 47 47 46 46 45 43 42 41 40 40 39 37 36 36 34 34 34 34 34 33 33 32 31 32 32 31 31 30 30 30 30 29 29 29 29 30 30 30 31 31 31
46 46 47 47 48 47 46 44 43 43 42 41 40 40 39 38 36 36 35 35 35 35 35 35 34 33 33 33 33 32 32 32 31 31 31 31 31 32 31 31 32 32 32
45 46 46 47 48 48 47 46 45 45 44 43 42 42 41 40 38 37 37 36 36 36 36 36 35 35 35 34 34 34 34 33 33 33 33 33 33 32 32 32 32 33 33
44 45 45 47 48 48 48 48 47 46 46 45 45 43 43 42 41 40 39 38 37 37 37 37 37 37 36 36 36 36 35 35 35 34 33 33 33 33 33 33 34 35 35
44 44 45 46 47 48 49 49 48 48 47 47 47 46 45 44 43 42 41 41 40 39 39 38 37 38 38 37 37 37 37 37 36 35 35 34 35 35 35 35 36 37 37
43 44 44 45 46 48 48 48 48 48 47 48 49 49 47 46 45 44 43 42 42 41 41 40 39 39 39 39 38 38 38 38 37 37 37 37 37 37 37 38 39 39 39
43 43 44 44 45 46 47 48 48 48 48 48 49 49 48 47 47 46 45 45 44 43 43 42 41 41 40 40 40 39 38 38 38 38 39 39 39 39 39 41 41 41 42
42 42 42 43 44 45 46 47 47 47 47 48 48 48 48 48 48 47 47 45 45 45 44 43 43 42 41 40 40 40 39 40 40 40 40 40 41 41 42 41 42 42 43
40 41 40 40 41 42 43 44 45 45 46 47 48 49 48 47 47 46 45 45 44 44 44 44 43 42 40 40 40 40 40 41 41 41 41 41 42 43 43 42 42 43 44
37 38 38 38 39 40 40 42 44 44 44 44 46 46 46 46 46 45 45 44 44 44 44 44 44 42 41 40 40 41 41 41 41 41 42 42 42 42 43 44 44 45 45
32 33 35 36 36 38 39 41 41 42 42 42 42 43 45 45 44 44 43 43 44 43 44 44 43 42 42 42 42 43 43 43 43 42 42 43 42 42 43 44 45 45 46
30 31 33 33 34 35 37 39 40 41 41 40 41 42 44 44 44 43 43 43 44 44 44 43 43 42 42 43 43 44 44 43 43 43 42 41 41 42 42 43 45 45 45
29 30 32 32 33 34 35 36 38 39 39 39 40 40 41 42 43 43 42 41 42 43 43 43 43 43 43 43 43 43 43 43 43 43 42 42 41 41 42 43 45 45 45
Wind_Direction
244 246 247 248 249 250 251 252 254 255 257 260 263 265 268 270 271 271 272 276 275 275 274 273 269 267 264 259 255 255 257 260 266 280 293 304 308 311 315 316 319 323 327
246 246 246 247 248 249 251 253 254 255 256 258 260 263 266 268 268 268 269 271 272 272 271 273 272 271 269 265 263 263 265 267 271 276 284 292 297 301 304 306 310 314 318
247 247 247 247 247 249 250 253 255 256 256 257 259 261 263 266 267 267 267 269 270 270 269 270 271 272 271 269 267 267 268 270 272 275 279 285 290 294 297 299 303 307 311
247 247 248 248 248 248 250 252 255 256 257 258 258 260 262 264 266 267 267 268 269 269 269 270 271 271 272 270 268 267 269 269 271 273 276 281 285 289 292 295 298 302 305
247 247 247 248 249 249 250 252 254 256 258 259 259 259 261 262 264 266 267 267 268 268 269 270 270 270 270 270 269 269 271 271 271 272 274 277 281 284 287 291 295 298 301
248 248 248 248 249 250 251 252 253 255 256 258 259 260 260 261 262 264 266 267 267 268 269 270 269 270 269 269 269 270 272 273 273 273 274 275 278 281 284 288 292 295 298
249 249 249 249 249 250 251 252 254 253 255 257 259 260 260 261 261 262 264 265 266 267 268 269 270 270 270 269 269 270 272 274 275 276 276 276 278 280 283 287 289 292 295
249 249 249 250 250 250 251 253 254 254 254 256 258 260 260 261 261 261 262 263 265 265 266 268 269 270 270 269 269 270 271 273 275 276 278 279 279 281 283 286 288 291 294
248 248 249 249 250 251 251 252 253 254 254 255 256 258 260 260 260 261 262 263 264 265 265 266 268 269 270 270 270 271 272 273 275 276 277 279 280 281 283 285 288 290 292
247 248 248 249 249 250 251 252 252 253 253 254 255 257 259 260 260 260 261 263 264 265 265 266 267 268 269 270 270 271 273 274 275 276 278 279 280 282 284 286 287 289 291
247 247 248 248 249 249 250 251 252 252 253 254 255 256 258 260 259 259 260 261 262 264 265 266 266 267 268 269 270 272 274 274 275 276 278 279 281 282 283 285 286 288 290
247 247 248 249 249 249 250 250 251 251 252 253 254 256 257 258 259 259 260 261 262 263 265 266 265 266 267 268 269 271 274 275 276 276 278 280 281 282 283 284 285 287 289
248 248 248 248 249 249 249 250 250 251 252 253 254 255 256 257 258 258 260 260 261 262 263 266 265 265 266 267 268 270 273 275 276 277 278 280 281 282 283 284 285 286 287
248 247 247 247 248 248 249 249 250 250 251 252 254 255 256 256 258 259 260 261 260 261 262 264 265 265 265 266 267 270 272 274 276 277 278 280 281 282 283 283 284 285 286
248 248 247 246 247 247 248 249 250 250 251 252 254 254 256 256 257 258 260 263 262 262 262 263 264 264 265 266 267 269 271 274 276 278 278 279 281 282 282 283 283 285 286
248 248 247 246 246 246 247 248 249 250 250 251 252 254 255 255 257 258 260 262 263 263 263 263 264 264 264 266 269 270 271 273 276 277 278 279 280 281 282 283 283 284 285
249 249 248 247 246 246 246 248 249 249 249 250 252 253 253 255 256 258 260 262 263 262 263 263 264 265 265 266 268 269 270 273 275 277 278 279 280 281 281 282 283 284 286
250 250 249 248 247 246 247 248 248 249 249 249 251 252 252 253 255 257 259 261 261 260 262 264 265 265 265 266 267 268 271 272 274 275 277 280 280 280 281 282 283 284 285
251 251 250 249 248 247 247 247 247 248 250 251 250 251 252 253 254 256 258 260 260 259 261 263 264 265 265 265 267 269 271 272 272 274 276 279 281 281 282 283 284 284 285
251 251 250 250 248 247 247 247 248 249 250 251 250 252 252 252 254 255 256 258 259 259 260 263 264 265 265 265 265 267 269 271 273 275 277 279 281 281 283 284 285 284 285
250 250 250 249 248 248 248 248 247 248 249 250 251 251 252 252 253 255 256 258 258 258 259 262 263 264 264 265 265 266 269 272 274 276 278 279 281 283 283 283 284 284 285
250 250 250 248 247 247 247 247 246 247 247 249 250 250 251 252 253 255 256 257 257 256 257 261 263 262 262 263 265 267 269 272 275 276 278 280 282 283 282 283 284 284 285
249 248 248 247 246 247 248 248 247 247 247 248 249 250 251 252 253 253 255 256 256 255 259 261 261 260 262 264 265 267 270 273 275 276 279 281 282 283 283 283 284 284 285
249 248 248 247 247 249 249 249 247 247 247 249 250 250 252 253 253 254 255 255 256 256 258 261 261 260 262 264 267 269 271 274 276 278 280 280 281 282 283 283 284 284 284
249 248 248 249 249 250 250 248 246 245 248 250 251 251 252 252 252 253 253 255 256 256 258 259 260 261 264 266 267 270 273 275 277 280 280 280 282 284 285 286 285 285 286
251 250 249 250 251 251 250 247 245 244 248 251 252 253 253 253 253 254 255 257 257 256 258 258 260 264 265 267 269 271 273 275 277 279 281 281 282 284 287 288 288 288 288
Height
5856 5857 5859 5861 5862 5863 5865 5866 5867 5869 5870 5870 5871 5872 5872 5873 5874 5874 5874 5875 5875 5875 5875 5875 5875 5875 5875 5875 5875 5875 5875 5875 5875 5875 5875 5875 5874 5874 5874 5873 5873 5872 5872
5852 5854 5855 5857 5859 5860 5862 5863 5865 5866 5867 5868 5869 5870 5871 5871 5872 5873 5873 5873 5874 5874 5874 5874 5874 5874 5874 5874 5874 5874 5874 5874 5874 5874 5874 5874 5873 5873 5873 5872 5872 5871 5871
5848 5850 5852 5853 5855 5857 5859 5860 5862 5863 5864 5866 5867 5868 5869 5869 5870 5871 5871 5872 5872 5873 5873 5873 5873 5873 5873 5873 5873 5873 5873 5873 5873 5873 5873 5872 5872 5872 5871 5871 5870 5870 5869
5844 5846 5848 5849 5851 5853 5855 5857 5858 5860 5861 5863 5864 5865 5866 5867 5868 5869 5869 5870 5870 5871 5871 5871 5872 5872 5872 5872 5872 5872 5871 5871 5871 5871 5871 5871 5871 5870 5870 5869 5869 5868 5867
5839 5841 5843 5845 5847 5849 5851 5853 5855 5856 5858 5859 5861 5862 5863 5864 5865 5866 5867 5867 5868 5868 5869 5869 5870 5870 5870 5870 5870 5870 5870 5870 5870 5869 5869 5869 5869 5868 5867 5867 5866 5866 5865
5834 5836 5839 5841 5843 5845 5847 5849 5851 5852 5854 5855 5857 5858 5860 5861 5862 5863 5864 5864 5865 5866 5866 5867 5867 5867 5867 5867 5868 5868 5867 5867 5867 5867 5867 5866 5866 5865 5865 5864 5864 5863 5862
5828 5831 5833 5836 5838 5840 5842 5844 5846 5848 5849 5851 5853 5854 5855 5857 5858 5859 5860 5861 5862 5863 5863 5864 5864 5865 5865 5865 5865 5865 5865 5865 5865 5864 5864 5864 5863 5863 5862 5862 5861 5860 5859
5822 5825 5828 5830 5832 5835 5837 5839 5841 5843 5845 5847 5848 5850 5851 5852 5854 5855 5856 5857 5858 5859 5860 5860 5861 5861 5861 5861 5862 5862 5862 5862 5861 5861 5861 5861 5860 5860 5859 5858 5858 5857 5856
5815 5818 5821 5824 5826 5829 5831 5833 5835 5838 5840 5841 5843 5845 5846 5848 5849 5851 5852 5853 5854 5855 5856 5857 5857 5857 5858 5858 5858 5858 5858 5858 5858 5858 5858 5857 5857 5856 5856 5855 5854 5853 5852
5808 5811 5814 5817 5820 5822 5825 5827 5830 5832 5834 5836 5838 5839 5841 5843 5845 5846 5847 5849 5850 5851 5852 5852 5853 5853 5854 5854 5854 5854 5854 5854 5854 5854 5854 5853 5853 5852 5852 5851 5850 5849 5848
5800 5803 5806 5810 5813 5815 5818 5821 5823 5826 5828 5830 5832 5834 5836 5838 5839 5841 5842 5843 5845 5846 5847 5848 5848 5849 5849 5850 5850 5850 5850 5850 5850 5850 5850 5849 5848 5848 5847 5846 5846 5845 5844
5792 5795 5799 5802 5805 5808 5811 5814 5817 5819 5821 5824 5826 5828 5830 5832 5834 5835 5837 5838 5839 5840 5841 5842 5843 5844 5845 5845 5845 5846 5846 5846 5846 5845 5845 5844 5844 5843 5842 5841 5841 5840 5838
5784 5787 5790 5794 5797 5800 5804 5806 5809 5812 5815 5817 5819 5822 5824 5826 5828 5829 5831 5832 5833 5835 5836 5837 5838 5838 5839 5840 5840 5841 5841 5841 5841 5840 5840 5839 5838 5838 5837 5836 5835 5834 5833
5775 5778 5781 5784 5788 5792 5795 5799 5802 5805 5808 5810 5813 5815 5817 5819 5821 5823 5824 5826 5827 5828 5830 5831 5832 5832 5833 5834 5834 5835 5835 5835 5835 5835 5835 5834 5833 5832 5831 5830 5829 5828 5827
5765 5768 5772 5775 5779 5783 5787 5790 5794 5797 5800 5803 5805 5808 5810 5812 5814 5816 5818 5819 5821 5822 5823 5825 5825 5826 5827 5828 5828 5829 5829 5829 5829 5829 5828 5828 5827 5826 5825 5824 5823 5822 5820
5756 5759 5763 5766 5770 5774 5778 5782 5785 5788 5792 5794 5797 5799 5802 5804 5807 5809 5811 5812 5814 5815 5816 5817 5819 5819 5820 5821 5822 5822 5823 5823 5823 5822 5822 5821 5821 5820 5819 5817 5816 5815 5813
5747 5750 5753 5757 5761 5765 5769 5772 5776 5779 5783 5786 5788 5791 5793 5796 5799 5801 5804 5805 5807 5808 5809 5810 5811 5812 5814 5814 5815 5815 5816 5816 5816 5815 5815 5814 5814 5813 5812 5811 5809 5808 5806
5738 5741 5744 5747 5751 5755 5759 5763 5766 5770 5774 5777 5780 5782 5785 5788 5791 5793 5795 5797 5799 5800 5801 5803 5804 5805 5806 5807 5808 5808 5808 5808 5808 5808 5808 5807 5806 5806 5805 5803 5802 5800 5798
5729 5732 5735 5738 5741 5745 5749 5753 5757 5761 5764 5767 5770 5773 5776 5779 5782 5784 5786 5788 5790 5792 5793 5795 5796 5797 5798 5799 5800 5800 5800 5800 5800 5800 5800 5799 5798 5798 5796 5795 5793 5791 5789
5719 5722 5725 5728 5732 5735 5739 5743 5747 5751 5755 5758 5761 5764 5766 5769 5772 5775 5777 5779 5781 5783 5785 5786 5788 5789 5790 5791 5792 5792 5792 5793 5792 5792 5792 5791 5790 5789 5787 5786 5784 5782 5780
5710 5713 5715 5718 5722 5725 5729 5733 5737 5741 5745 5748 5750 5754 5757 5760 5762 5765 5768 5770 5772 5774 5776 5778 5779 5780 5781 5782 5783 5784 5784 5784 5784 5784 5783 5782 5781 5780 5778 5776 5774 5772 5770
5700 5703 5706 5709 5712 5715 5719 5723 5727 5731 5734 5737 5740 5743 5747 5750 5753 5756 5759 5761 5763 5765 5767 5769 5770 5771 5772 5773 5774 5774 5775 5776 5776 5775 5774 5773 5771 5770 5768 5766 5764 5761 5759
5691 5694 5697 5700 5703 5706 5710 5713 5717 5720 5723 5727 5730 5734 5737 5740 5743 5746 5749 5752 5754 5756 5758 5760 5761 5762 5763 5764 5764 5765 5765 5766 5767 5767 5765 5763 5761 5759 5757 5755 5753 5750 5748
5683 5686 5689 5692 5695 5698 5700 5704 5707 5710 5714 5717 5720 5723 5727 5730 5733 5736 5739 5742 5745 5747 5749 5750 5751 5753 5754 5754 5755 5755 5756 5755 5755 5756 5755 5753 5751 5749 5747 5745 5742 5739 5736
5676 5679 5682 5684 5687 5689 5691 5694 5698 5701 5705 5708 5711 5714 5717 5720 5723 5726 5729 5732 5735 5737 5739 5741 5742 5743 5744 5744 5745 5746 5745 5745 5744 5743 5744 5743 5741 5739 5736 5733 5730 5728 5724
5669 5672 5674 5677 5679 5680 5683 5685 5688 5693 5696 5699 5702 5705 5708 5711 5714 5718 5720 5722 5725 5727 5728 5730 5731 5732 5733 5734 5735 5735 5735 5734 5734 5733 5732 5732 5730 5728 5725 5722 5719 5716 5713